星链-37383(STARLINK-37383)

导读

STARLINK-37383(NORAD编号69379)是美国太空探索技术公司(SpaceX)星链低轨通信星座的组成卫星,隶属2026年3月27日UTC+8时间从范登堡太空军基地发射的Starlink-373(17-17)任务批次,由猎鹰9号火箭送入近地轨道。 该卫星属于星链第二代组网卫星,主要承担全球低延迟宽带通信服务功能,可支持文本、语音、数据传输,当前在轨运行状态稳定,是星链全球超9600颗在役卫星的组成部分,支撑星链系统在全球160余个国家和地区的通信服务覆盖。 (全文共152字)

基本信息
目录编号:
69379
目录名称:
STARLINK-37383
国际标识:
2026-123AC
轨道中心:
EARTH
卫星名称:
星链-37383
卫星全名:
星链-37383(STARLINK-37383)
卫星状态:
在轨 (已飞行93 天)
发射日期:
2026-06-04 UTC
国别 :
美国 (US)
星等 :
--
轨道信息
数据来源 国际轨道数据 AOE轨道数据
星历时间 2026-09-04T21:47:27+0800
17小时前
查看轨道信息
2026-08-30T23:00:00+0800
5天前
查看轨道信息
半长轴 6840.856km 6840.884km
偏心率 0.0001333 0.0001297
轨道倾角 53.160° 53.155°
近地点辐角 95.833° 71.771°
升交点赤经 216.248° 239.392°
平近点角 264.283° 292.308°
近地点 461.807km 461.859km
远地点 463.631km 463.635km
周期 93.848分钟 93.849分钟
每日圈数 15.343949 15.343855
详细信息
固有亮度:
5
最大亮度:
2.5
卫星平台:
Starlink V1.0
覆盖范围:
全球
运营商:
太空探索技术公司
运营商所在国:
美国
制造商(研发单位):
太空探索技术公司
制造商所在国:
美国
使用方式:
暂无
卫星简介
Starlink 计划是 SpaceX 推出的全球卫星互联网项目,通过发射低轨道卫星,为全球尤其是偏远地区提供高速、低延迟的互联网服务。自 2019 年起,Starlink 已部署数千颗卫星,旨在缩小全球数字鸿沟,推动互联网普及。该项目还为军事、航空等行业提供通信支持,带来广泛经济效益。
2D轨道图
3D轨道图
轨道高度分析图
轨道倾角分析图
轨道综合分析图
查看轨道综合分析图